Regional Weather Roundup
Issued by NWS

Home | Current Version | Previous Version | Graphics & Text | Print | Product List | Glossary On
Versions: 1 2 3 4 5 6 7 8 9 10 11 12 13 14 15 16 17 18 19 20 21 22 23 24 25 26 27 28 29 30 31 32 33 34 35 36 37 38 39 40 41 42 43 44 45 46 47 48 49 50
000
ASUS43 KLOT 240600
RWRIL

ILLINOIS REGIONAL WEATHER ROUNDUP
NATIONAL WEATHER SERVICE CHICAGO/ROMEOVILLE IL
100 AM CDT FRI OCT 24 2014

NOTE: "FAIR" INDICATES FEW OR NO CLOUDS BELOW 12,000 FEET WITH NO
SIGNIFICANT WEATHER AND/OR OBSTRUCTIONS TO VISIBILITY.

* THESE STATIONS ARE NOT UNDER NWS QUALITY CONTROL. THEY ALSO MAY NOT
  REPORT WEATHER SUCH AS PRECIPITATION OR FOG.

ILZ001-002-007-009-015-016-024-240700-
NORTHWEST ILLINOIS

CITY           SKY/WX    TMP DP  RH WIND       PRES   REMARKS
MOLINE         PTCLDY    47  45  93 CALM      30.05S
6HR MIN TEMP:  46; 6HR MAX TEMP:  59;

STERLING*      MOCLDY    52  45  76 CALM      30.04F
$$

ILZ003-004-008-010-011-017-018-240700-
NORTH CENTRAL ILLINOIS

CITY           SKY/WX    TMP DP  RH WIND       PRES   REMARKS
ROCKFORD       PTCLDY    47  45  93 S5        30.05F FOG
6HR MIN TEMP:  46; 6HR MAX TEMP:  52; 6HR PCP: TRACE;

$$

ILZ005-006-012>014-019>023-240700-
NORTHEAST ILLINOIS

CITY           SKY/WX    TMP DP  RH WIND       PRES   REMARKS
CHICAGO-OHARE  CLOUDY    54  43  66 S6        30.04F
6HR MIN TEMP:  54; 6HR MAX TEMP:  55;

CHICAGO-MIDWAY CLOUDY    56  44  64 S7        30.05F
6HR MIN TEMP:  56; 6HR MAX TEMP:  58; 6HR PCP: TRACE;

AURORA         CLOUDY    53  45  74 S5        30.05F
6HR MIN TEMP:  53; 6HR MAX TEMP:  56;

WAUKEGAN       CLOUDY    50  46  86 S3        30.03F
6HR MIN TEMP:  50; 6HR MAX TEMP:  55; 6HR PCP: TRACE;

DUPAGE AIRPORT CLOUDY    53  45  74 S6        30.04F
6HR MIN TEMP:  53; 6HR MAX TEMP:  55;

WHEELING       CLOUDY    56  43  61 S6        30.06F
6HR MIN TEMP:  55; 6HR MAX TEMP:  58;

NORTHERLY ISL    N/A     55  42  61 SW6         N/A
$$

LMZ740>746-240700-
SOUTHERN LAKE MICHIGAN

STATION/POSITION SKY/WX   TEMP    WIND        PRES    VSBY  WAVE
                          AIR SEA DIR/SP/G                  HT/PER
                          (F)     (DEG/KT/KT) (MB)    (MI)  (FT/S)
SOUTHERN BUOY              55 54  200/ 12/ 12 1017.9F
WAUKEGAN HARBOR            53     200/  3/  4   N/A
HARRISON CRIB              56     190/ 11/ 13   N/A
BURNHAM HARBOR             56     200/  4/  9   N/A
CALUMET HARBOR             55     190/  4/  5 1016.8F
MICHIGAN CITY              53     160/  8/ 10   N/A
$$

ILZ025>027-034>036-040-047-049-050-058-095>099-240700-
WEST-CENTRAL ILLINOIS

CITY           SKY/WX    TMP DP  RH WIND       PRES   REMARKS
QUINCY         MOCLDY    54  50  86 SW7       30.07F
$$

ILZ028>032-037-038-041>044-048-051>054-059>061-240700-
CENTRAL ILLINOIS

CITY           SKY/WX    TMP DP  RH WIND       PRES   REMARKS
DECATUR        CLOUDY    55  46  71 S7        30.09S
PEORIA         MOCLDY    56  46  69 S3        30.06F
6HR MIN TEMP:  54; 6HR MAX TEMP:  58;

SPRINGFIELD    CLOUDY    57  46  66 SW5       30.07F
6HR MIN TEMP:  57; 6HR MAX TEMP:  58;

TAYLORVILLE    NOT AVBL
$$

ILZ033-039-045-046-055>057-062-063-240700-
EAST-CENTRAL ILLINOIS

CITY           SKY/WX    TMP DP  RH WIND       PRES   REMARKS
CHAMPAIGN      CLOUDY    51  45  79 S6        30.09F
MATTOON        CLOUDY    51  42  71 S5        30.09S
$$

ILZ079-100>102-240700-
SOUTHWEST ILLINOIS

CITY           SKY/WX    TMP DP  RH WIND       PRES   REMARKS
BELLEVILLE     CLOUDY    53  48  84 CALM      30.10R
CAHOKIA*       MOCLDY    51  46  83 CALM      30.10S
$$

ILZ064>066-069>071-074>076-080>082-084>086-088>090-092>094-240700-
SOUTH-CENTRAL ILLINOIS

CITY           SKY/WX    TMP DP  RH WIND       PRES   REMARKS
CARBONDALE     CLEAR     44  41  89 S3        30.12S
6HR MIN TEMP:  43; 6HR MAX TEMP:  52;

MT. VERNON     CLOUDY    45  41  87 CALM      30.12R
$$

ILZ067-068-072-073-078-083-087-091-240700-
SOUTHEAST ILLINOIS

CITY           SKY/WX    TMP DP  RH WIND       PRES   REMARKS
LAWRENCEVILLE  PTCLDY    45  43  93 SE3       30.12S
$$

ABBREVIATIONS USED IN REMARKS
   TC - TEMPERATURE IN CELSIUS
  WCI - WIND CHILL INDEX
   HX - HEAT INDEX
  VSB - VISIBILITY
$$




USA.gov is the U.S. government's official web portal to all federal, state and local government web resources and services.